Weather History for San Angelo, TX

Change the Weather History Date:

Saturday, April 26, 2014

  Actual Average Record
Temperature  
Mean Temperature 82 °F 69 °F  
Max Temperature 94 °F 83 °F 105 °F (2012)
Min Temperature 69 °F 55 °F 38 °F (2007)
Degree Days  
Heating Degree Days 0 1  
Month to date heating degree days 65 84  
Since 1 July heating degree days 2467 2302  
Cooling Degree Days 17 5  
Month to date cooling degree days 171 93  
Year to date cooling degree days 229 131  
Growing Degree Days 31 (Base 50)    
Moisture  
Dew Point 59 °F    
Average Humidity 51    
Maximum Humidity 73    
Minimum Humidity 28    
Precipitation  
Precipitation 0.00 in 0.05 in 2.35 in (1957)
Month to date precipitation 0.41 1.18  
Year to date precipitation 0.52 4.96  
Snow  
Snow 0.00 in 0.00 in 0.00 in (2002)
Month to date snowfall 0.0 0.0  
Since 1 July snowfall 1.6 2.2  
Snow Depth 0.00 in    
Sea Level Pressure  
Sea Level Pressure 29.64 in    
Wind  
Wind Speed 14 mph (South)    
Max Wind Speed 23 mph    
Max Gust Speed 32 mph    
Visibility 10 miles    
Events      
T = Trace of Precipitation, MM = Missing Value Source: NWS Daily Summary

Daily Weather History Graph

Daily Weather History Graph

Search for Another Location

Airport:

Trip Planner

Search our weather history database for the weather conditions in past years. The results will help you decide how hot, cold, wet, or windy it might be!

Date:

Astronomy

Apr. 26, 2014 Rise Set
Actual Time 7:01 AM CDT 8:18 PM CDT
Civil Twilight 6:36 AM CDT 8:43 PM CDT
Nautical Twilight 6:06 AM CDT 9:13 PM CDT
Astronomical Twilight 5:34 AM CDT 9:45 PM CDT
Moon 5:15 AM CDT (4/26) 5:57 PM CDT (4/26)
Length of Visible Light 14h 07m
Length of Day
13h 16m
Waning Crescent, 8% of the Moon is Illuminated
Apr 26
Waning Crescent
Apr 29
New
May 6
First Quarter
May 14
Full
May 21
Last Quarter

Hourly Weather History & Observations

Time (CDT) Temp. Heat Index Dew Point Humidity Pressure Visibility Wind Dir Wind Speed Gust Speed Precip Events Conditions
1:51 AM 75.9 °F - 57.9 °F 54% 29.73 in 10.0 mi SSE 6.9 mph - N/A   Clear
2:51 AM 73.9 °F - 57.9 °F 57% 29.70 in 10.0 mi South 11.5 mph 21.9 mph N/A   Clear
3:51 AM 73.0 °F - 59.0 °F 61% 29.70 in 10.0 mi South 8.1 mph - N/A   Clear
4:51 AM 72.0 °F - 60.1 °F 66% 29.69 in 10.0 mi South 12.7 mph 17.3 mph N/A   Clear
5:51 AM 71.1 °F - 60.1 °F 68% 29.69 in 10.0 mi South 11.5 mph - N/A   Clear
6:51 AM 69.1 °F - 61.0 °F 75% 29.70 in 10.0 mi South 12.7 mph 20.7 mph N/A   Clear
7:21 AM 69.1 °F - 62.1 °F 78% 29.78 in 10.0 mi South 9.2 mph 19.6 mph N/A   Mostly Cloudy
7:51 AM 71.1 °F - 63.0 °F 75% 29.70 in 10.0 mi South 13.8 mph - N/A   Overcast
8:22 AM 73.0 °F - 63.0 °F 71% 29.78 in 10.0 mi South 16.1 mph 21.9 mph N/A   Scattered Clouds
8:51 AM 73.0 °F - 63.0 °F 71% 29.72 in 10.0 mi SSW 11.5 mph 20.7 mph N/A   Clear
9:23 AM 75.9 °F - 63.0 °F 64% 29.79 in 10.0 mi SSW 17.3 mph - N/A   Partly Cloudy
9:51 AM 75.0 °F - 62.1 °F 64% 29.72 in 10.0 mi SSW 12.7 mph - N/A   Clear
11:51 AM 87.1 °F 85.3 °F 55.0 °F 33% 29.68 in 10.0 mi SSW 20.7 mph 26.5 mph N/A   Clear
12:51 PM 90.0 °F 87.7 °F 54.0 °F 29% 29.64 in 10.0 mi South 18.4 mph - N/A   Clear
1:51 PM 91.0 °F 88.5 °F 53.1 °F 27% 29.60 in 10.0 mi South 15.0 mph 25.3 mph N/A   Clear
2:51 PM 91.0 °F 89.2 °F 55.9 °F 30% 29.57 in 10.0 mi South 18.4 mph 26.5 mph N/A   Clear
4:51 PM 90.0 °F 88.6 °F 57.0 °F 33% 29.52 in 10.0 mi SSE 17.3 mph 27.6 mph N/A   Clear
5:51 PM 88.0 °F 86.9 °F 57.9 °F 36% 29.52 in 10.0 mi South 19.6 mph 26.5 mph N/A   Clear
6:51 PM 89.1 °F 87.3 °F 55.9 °F 32% 29.50 in 10.0 mi SSE 20.7 mph 27.6 mph N/A   Clear
7:51 PM 84.0 °F 83.8 °F 59.0 °F 43% 29.50 in 10.0 mi SSE 15.0 mph 26.5 mph N/A   Clear
8:51 PM 82.0 °F 82.1 °F 59.0 °F 45% 29.51 in 10.0 mi South 15.0 mph - N/A   Clear
9:51 PM 80.1 °F 80.7 °F 59.0 °F 48% 29.51 in 10.0 mi South 13.8 mph 23.0 mph N/A   Clear
10:51 PM 79.0 °F - 61.0 °F 54% 29.52 in 10.0 mi South 17.3 mph 26.5 mph N/A   Clear